Ana Sayfa
METAR-TAF:

METAR-TAF

Havaalanları :

Port Hope, Michigan, Amerika Birleşik Devletleri

Enlem: 44-01-19N, Boylam: 082-47-35W, yükseklik: 179 m

Güncel hava durumu gözlemi

Rapor saat 06:51 UTC de 53 dakika önce yapıldı.
Rüzgar kuzey/kuzeybatıdan 10 kt ve 20 kt'a kadar ani rüzgarlar
Sıcaklık -6°C
Nem 79%
Basınç 1012 hPa

METAR: KP58 290651Z AUTO 34010G20KT M06/M09 A2989 RMK AO1 SLP137 T10611094

Saat: 02:44 (07:44 UTC)


TAF: eksik

4.000'den fazla havaalanı için hava durumu gözlemleri ve tahminleri (METAR ve TAF raporları).

Kullanılabilir istasyonlar harita üzerinde sarı ve kırmızı noktalarla gösterilir.

İstasyonun adını görmek için fareyi noktanın üzerinde gezdirin.

Sonrasında hava gözlem ve tahminlerini görmek için tıklayın.

Haritayı değiştirmek için: yaklaştırmak için siyah artı işaretli yeşil düğmeye ve uzaklaştırmak için de eksi işaretli düğmeye hızla tıklayın; bitişik haritalar için yeşil okları kullanın.


METAR-TAF: